Location: Dead Woman Crossing
(43.5369°N, 106.3228°W)
Time: 02:18:35
(UTC+00:00)

UWE-3 - Pass Details

Date: 01 July 2022
Orbit: 583 x 677 km, 97.7° (Epoch: 11 August)

Event Time Altitude Azimuth Distance (km) Brightness Sun altitude
Rises 10:19:10 0° 15° (NNE) 2,890 ? -10.4°
Reaches altitude 10° 10:21:21 10° 19° (NNE) 1,995 ? -10.1°
Maximum altitude 10:25:40 63° 101° (E) 709 ? -9.6°
Drops below altitude 10° 10:30:04 10° 183° (S) 2,038 ? -9.0°
Enters shadow 10:31:26 - 185° (S) 2,595 ? -8.8°
